Location: Newark
(44.2003°N, 3.2583°E)
Time: 20:48:26
(UTC+00:00)

Explorer 7 - Pass Details

Date: 24 October 2019
Orbit: 485 x 680 km, 50.3° (Epoch: 18 November)

Event Time Altitude Azimuth Distance (km) Brightness Sun altitude
Rises 15:20:18 0° 296° (WNW) 2,571 10.7 13.7°
Reaches altitude 10° 15:22:28 10° 292° (WNW) 1,702 9.9 13.4°
Maximum altitude 15:26:14 56° 214° (SW) 614 7.8 12.8°
Drops below altitude 10° 15:30:10 10° 136° (SE) 1,778 9.3 12.2°
Sets 15:32:28 0° 132° (SE) 2,700 10.2 11.8°
